Time,TemperatureF,DewpointF,PressureIn,WindDirection,WindDirectionDegrees,WindSpeedMPH,WindSpeedGustMPH,Humidity,HourlyPrecipIn,Conditions,Clouds,dailyrainin,SolarRadiationWatts/m^2,SoftwareType,DateUTC
2013-03-29 00:01:00,47.2,30.5,29.98,WSW,248,0.0,0.0,52,0.00,BKN,BKN,0.00,0.0,WeatherDisplay:10.37,2013-03-29 06:01:00,
2013-03-29 00:08:00,47.0,30.3,29.96,WSW,248,0.0,1.1,52,0.00,BKN,BKN,0.00,0.0,WeatherDisplay:10.37,2013-03-29 06:08:00,
2013-03-29 00:15:00,46.8,30.6,29.96,WSW,248,0.0,0.0,53,0.00,BKN,BKN,0.00,0.0,WeatherDisplay:10.37,2013-03-29 06:15:00,
2013-03-29 00:22:00,46.5,30.3,29.95,WSW,248,0.0,0.0,53,0.00,BKN,BKN,0.00,0.0,WeatherDisplay:10.37,2013-03-29 06:22:00,
2013-03-29 00:29:00,46.3,30.5,29.96,WSW,248,0.0,0.0,54,0.00,BKN,BKN,0.00,0.0,WeatherDisplay:10.37,2013-03-29 06:29:00,
2013-03-29 00:36:00,46.1,30.4,29.97,WSW,248,2.1,3.4,54,0.00,BKN,BKN,0.00,0.0,WeatherDisplay:10.37,2013-03-29 06:36:00,
2013-03-29 00:43:00,45.6,30.3,29.97,SSE,157,3.6,5.0,55,0.00,BKN,BKN,0.00,0.0,WeatherDisplay:10.37,2013-03-29 06:43:00,
2013-03-29 00:50:00,45.3,30.5,29.97,SSE,150,0.1,1.1,56,0.00,BKN,BKN,0.00,0.0,WeatherDisplay:10.37,2013-03-29 06:50:00,
2013-03-29 00:57:00,45.0,30.2,29.97,SSE,150,0.0,0.0,56,0.00,BKN,BKN,0.00,0.0,WeatherDisplay:10.37,2013-03-29 06:57:00,
2013-03-29 01:04:00,44.9,30.6,29.95,SSE,150,0.4,2.3,57,0.00,BKN,BKN,0.00,0.0,WeatherDisplay:10.37,2013-03-29 07:04:00,
2013-03-29 01:11:00,44.6,30.3,29.95,SSE,150,0.0,0.0,57,0.00,BKN,BKN,0.00,0.0,WeatherDisplay:10.37,2013-03-29 07:11:00,
2013-03-29 01:18:00,44.4,30.1,29.95,SSE,150,0.3,3.0,57,0.00,BKN,BKN,0.00,0.0,WeatherDisplay:10.37,2013-03-29 07:18:00,
2013-03-29 01:25:00,44.1,30.3,29.95,SSE,153,1.1,3.4,58,0.00,BKN,BKN,0.00,0.0,WeatherDisplay:10.37,2013-03-29 07:25:00,
2013-03-29 01:32:00,43.9,30.5,29.95,SSE,153,0.0,0.0,59,0.00,BKN,BKN,0.00,0.0,WeatherDisplay:10.37,2013-03-29 07:32:00,
2013-03-29 01:39:00,43.8,30.4,29.95,SSE,153,0.0,0.0,59,0.00,BKN,BKN,0.00,0.0,WeatherDisplay:10.37,2013-03-29 07:39:00,
2013-03-29 01:46:00,43.7,30.3,29.96,SSE,152,0.0,0.0,59,0.00,BKN,BKN,0.00,0.0,WeatherDisplay:10.37,2013-03-29 07:46:00,
2013-03-29 01:53:00,43.6,30.2,29.95,SSE,152,0.0,0.0,59,0.00,BKN,BKN,0.00,0.0,WeatherDisplay:10.37,2013-03-29 07:53:00,
2013-03-29 02:00:00,43.5,30.1,29.95,SSE,153,0.0,0.0,59,0.00,BKN,BKN,0.00,0.0,WeatherDisplay:10.37,2013-03-29 08:00:00,
2013-03-29 02:07:00,43.3,29.9,29.95,SSE,153,0.0,0.0,59,0.00,BKN,BKN,0.00,0.0,WeatherDisplay:10.37,2013-03-29 08:07:00,
2013-03-29 02:14:00,43.1,30.6,29.95,SSE,152,0.0,0.0,61,0.00,SCT,SCT,0.00,0.0,WeatherDisplay:10.37,2013-03-29 08:14:00,
2013-03-29 02:21:00,42.9,30.4,29.95,SSE,153,0.8,2.3,61,0.00,SCT,SCT,0.00,0.0,WeatherDisplay:10.37,2013-03-29 08:21:00,
2013-03-29 02:28:00,42.8,30.7,29.95,SSE,153,0.7,3.4,62,0.00,SCT,SCT,0.00,0.0,WeatherDisplay:10.37,2013-03-29 08:28:00,
2013-03-29 02:35:00,42.9,30.8,29.95,SSE,153,0.0,1.1,62,0.00,SCT,SCT,0.00,0.0,WeatherDisplay:10.37,2013-03-29 08:35:00,
2013-03-29 02:42:00,42.9,30.8,29.95,South,169,0.6,3.4,62,0.00,SCT,SCT,0.00,0.0,WeatherDisplay:10.37,2013-03-29 08:42:00,
2013-03-29 02:49:00,42.9,30.8,29.95,South,171,2.3,3.4,62,0.00,SCT,SCT,0.00,0.0,WeatherDisplay:10.37,2013-03-29 08:49:00,
2013-03-29 02:56:00,43.0,30.5,29.95,SSW,207,3.0,5.8,61,0.00,SCT,SCT,0.00,0.0,WeatherDisplay:10.37,2013-03-29 08:56:00,
2013-03-29 03:03:00,43.0,30.5,29.94,SSW,206,1.2,3.4,61,0.00,SCT,SCT,0.00,0.0,WeatherDisplay:10.37,2013-03-29 09:03:00,
2013-03-29 03:10:00,43.0,30.5,29.94,SSW,206,0.0,0.0,61,0.00,SCT,SCT,0.00,0.0,WeatherDisplay:10.37,2013-03-29 09:10:00,
2013-03-29 03:17:00,43.0,30.5,29.94,SSW,206,0.5,2.3,61,0.00,SCT,SCT,0.00,0.0,WeatherDisplay:10.37,2013-03-29 09:17:00,
2013-03-29 03:24:00,42.8,30.3,29.94,SSW,206,0.2,2.3,61,0.00,SCT,SCT,0.00,0.0,WeatherDisplay:10.37,2013-03-29 09:24:00,
2013-03-29 03:31:00,42.7,30.2,29.94,SSW,206,0.7,1.1,61,0.00,SCT,SCT,0.00,0.0,WeatherDisplay:10.37,2013-03-29 09:31:00,
2013-03-29 03:38:00,42.5,30.4,29.94,SSW,206,0.0,0.0,62,0.00,SCT,SCT,0.00,0.0,WeatherDisplay:10.37,2013-03-29 09:38:00,
2013-03-29 03:45:00,42.3,30.2,29.94,SSW,206,0.1,1.1,62,0.00,BKN,BKN,0.00,0.0,WeatherDisplay:10.37,2013-03-29 09:45:00,
2013-03-29 03:52:00,42.0,30.3,29.94,SSW,206,0.0,0.0,63,0.00,BKN,BKN,0.00,0.0,WeatherDisplay:10.37,2013-03-29 09:52:00,
2013-03-29 03:59:00,41.7,30.0,29.93,SSW,206,1.4,2.3,63,0.00,BKN,BKN,0.00,0.0,WeatherDisplay:10.37,2013-03-29 09:59:00,
2013-03-29 04:06:00,41.3,30.0,29.95,SSW,206,1.1,2.3,64,0.00,SCT,SCT,0.00,0.0,WeatherDisplay:10.37,2013-03-29 10:06:00,
2013-03-29 04:13:00,41.1,29.8,29.95,SSW,206,0.0,0.0,64,0.00,SCT,SCT,0.00,0.0,WeatherDisplay:10.37,2013-03-29 10:13:00,
2013-03-29 04:20:00,40.9,30.0,29.95,SSW,206,1.5,2.3,65,0.00,SCT,SCT,0.00,0.0,WeatherDisplay:10.37,2013-03-29 10:20:00,
2013-03-29 04:27:00,40.6,29.7,29.95,SSW,206,0.0,0.0,65,0.00,SCT,SCT,0.00,0.0,WeatherDisplay:10.37,2013-03-29 10:27:00,
2013-03-29 04:34:00,40.3,29.8,29.97,SSW,205,2.5,3.4,66,0.00,SCT,SCT,0.00,0.0,WeatherDisplay:10.37,2013-03-29 10:34:00,
2013-03-29 04:41:00,40.1,29.6,29.96,SSW,193,2.8,4.6,66,0.00,SCT,SCT,0.00,0.0,WeatherDisplay:10.37,2013-03-29 10:41:00,
2013-03-29 04:48:00,40.1,30.0,29.96,SSW,205,1.5,4.6,67,0.00,SCT,SCT,0.00,0.0,WeatherDisplay:10.37,2013-03-29 10:48:00,
2013-03-29 04:53:00,40.2,30.1,29.97,SSW,202,1.6,3.4,67,0.00,SCT,SCT,0.00,0.0,WeatherDisplay:10.37,2013-03-29 10:53:00,
2013-03-29 04:58:00,40.2,29.7,29.97,SSW,202,0.1,1.1,66,0.00,SCT,SCT,0.00,0.0,WeatherDisplay:10.37,2013-03-29 10:58:00,
2013-03-29 05:03:00,40.2,29.7,29.97,SSW,202,1.2,3.4,66,0.00,SCT,SCT,0.00,0.0,WeatherDisplay:10.37,2013-03-29 11:03:00,
2013-03-29 05:09:00,40.2,29.7,29.98,SSW,202,0.0,0.0,66,0.00,SCT,SCT,0.00,0.0,WeatherDisplay:10.37,2013-03-29 11:09:00,
2013-03-29 05:16:00,40.2,29.7,29.98,SSW,202,0.0,0.0,66,0.00,BKN,BKN,0.00,0.0,WeatherDisplay:10.37,2013-03-29 11:16:00,
2013-03-29 05:23:00,40.2,29.4,29.98,SSW,202,0.0,0.0,65,0.00,BKN,BKN,0.00,0.0,WeatherDisplay:10.37,2013-03-29 11:23:00,
2013-03-29 05:30:00,40.1,29.3,29.98,SSW,202,0.0,2.3,65,0.00,BKN,BKN,0.00,0.0,WeatherDisplay:10.37,2013-03-29 11:30:00,
2013-03-29 05:37:00,40.1,29.3,29.98,SSW,202,1.3,2.3,65,0.00,BKN,BKN,0.00,0.0,WeatherDisplay:10.37,2013-03-29 11:37:00,
2013-03-29 05:44:00,40.1,29.3,29.98,SSW,202,0.0,0.0,65,0.00,BKN,BKN,0.00,0.0,WeatherDisplay:10.37,2013-03-29 11:44:00,
2013-03-29 05:51:00,40.1,29.3,29.97,SSW,202,0.0,0.0,65,0.00,BKN,BKN,0.00,0.0,WeatherDisplay:10.37,2013-03-29 11:51:00,
2013-03-29 05:58:00,40.1,29.3,29.98,SSW,202,0.6,2.0,65,0.00,BKN,BKN,0.00,0.0,WeatherDisplay:10.37,2013-03-29 11:58:00,
2013-03-29 06:04:00,40.3,29.8,29.99,SSW,202,0.0,1.1,66,0.00,OVC,OVC,0.00,0.0,WeatherDisplay:10.37,2013-03-29 12:04:00,
2013-03-29 06:12:00,40.5,30.0,29.99,SSW,202,0.6,2.3,66,0.00,OVC,OVC,0.00,0.0,WeatherDisplay:10.37,2013-03-29 12:12:00,
2013-03-29 06:19:00,40.6,29.7,29.99,SSW,202,0.8,3.4,65,0.00,OVC,OVC,0.00,0.0,WeatherDisplay:10.37,2013-03-29 12:19:00,
2013-03-29 06:25:00,40.7,29.8,30.00,SSW,202,0.3,1.0,65,0.00,OVC,OVC,0.00,0.0,WeatherDisplay:10.37,2013-03-29 12:25:00,
2013-03-29 06:32:00,40.7,29.5,29.99,SSW,202,0.5,3.4,64,0.00,OVC,OVC,0.00,0.0,WeatherDisplay:10.37,2013-03-29 12:32:00,
2013-03-29 06:39:00,40.9,29.7,30.00,SSW,202,0.2,2.3,64,0.00,OVC,OVC,0.00,0.0,WeatherDisplay:10.37,2013-03-29 12:39:00,
2013-03-29 06:46:00,40.9,29.7,30.00,SSW,202,0.1,2.3,64,0.00,OVC,OVC,0.00,0.0,WeatherDisplay:10.37,2013-03-29 12:46:00,
2013-03-29 06:53:00,41.1,29.8,30.01,SSW,202,1.5,3.0,64,0.00,OVC,OVC,0.00,0.0,WeatherDisplay:10.37,2013-03-29 12:53:00,
2013-03-29 07:00:00,41.0,29.7,30.01,SSW,202,0.0,0.0,64,0.00,OVC,OVC,0.00,9.0,WeatherDisplay:10.37,2013-03-29 13:00:00,
2013-03-29 07:07:00,40.8,29.6,30.02,SSW,202,0.9,3.4,64,0.00,OVC,OVC,0.00,14.0,WeatherDisplay:10.37,2013-03-29 13:07:00,
2013-03-29 07:14:00,40.7,29.5,30.02,SSW,202,0.6,1.1,64,0.00,OVC,OVC,0.00,23.0,WeatherDisplay:10.37,2013-03-29 13:14:00,
2013-03-29 07:21:00,40.6,29.4,30.02,SSW,202,0.9,2.3,64,0.00,OVC,OVC,0.00,30.0,WeatherDisplay:10.37,2013-03-29 13:21:00,
2013-03-29 07:28:00,40.6,29.4,30.02,SSW,202,1.8,3.4,64,0.00,OVC,OVC,0.00,42.0,WeatherDisplay:10.37,2013-03-29 13:28:00,
2013-03-29 07:35:00,41.0,29.7,30.02,SSW,202,2.1,3.4,64,0.00,OVC,OVC,0.00,53.0,WeatherDisplay:10.37,2013-03-29 13:35:00,
2013-03-29 07:42:00,41.4,29.7,30.03,SSW,195,1.6,3.4,63,0.00,OVC,OVC,0.00,63.0,WeatherDisplay:10.37,2013-03-29 13:42:00,
2013-03-29 07:49:00,41.7,29.6,30.02,SSW,196,1.8,4.6,62,0.00,OVC,OVC,0.00,77.0,WeatherDisplay:10.37,2013-03-29 13:49:00,
2013-03-29 07:56:00,42.1,29.6,30.02,SSW,196,2.9,3.4,61,0.00,OVC,OVC,0.00,86.0,WeatherDisplay:10.37,2013-03-29 13:56:00,
2013-03-29 08:03:00,42.4,29.5,30.04,SSW,196,1.7,3.4,60,0.00,BKN,BKN,0.00,93.0,WeatherDisplay:10.37,2013-03-29 14:03:00,
2013-03-29 08:10:00,42.7,30.2,30.03,SSW,196,0.1,2.0,61,0.00,BKN,BKN,0.00,97.0,WeatherDisplay:10.37,2013-03-29 14:10:00,
2013-03-29 08:17:00,42.9,30.0,30.03,SSW,195,0.4,1.1,60,0.00,BKN,BKN,0.00,109.0,WeatherDisplay:10.37,2013-03-29 14:17:00,
2013-03-29 08:24:00,43.3,30.3,30.03,SSW,197,1.8,3.4,60,0.00,BKN,BKN,0.00,123.0,WeatherDisplay:10.37,2013-03-29 14:24:00,
2013-03-29 08:31:00,43.9,30.1,30.03,SSW,198,3.1,5.0,58,0.00,BKN,BKN,0.00,135.0,WeatherDisplay:10.37,2013-03-29 14:31:00,
2013-03-29 08:38:00,44.7,30.0,30.02,SSW,207,3.9,5.8,56,0.00,BKN,BKN,0.00,139.0,WeatherDisplay:10.37,2013-03-29 14:38:00,
2013-03-29 08:45:00,45.4,30.2,30.02,SSW,198,2.8,3.4,55,0.00,BKN,BKN,0.00,149.0,WeatherDisplay:10.37,2013-03-29 14:45:00,
2013-03-29 08:52:00,45.8,30.1,30.02,South,186,2.4,6.0,54,0.00,BKN,BKN,0.00,162.0,WeatherDisplay:10.37,2013-03-29 14:52:00,
2013-03-29 08:59:00,46.2,30.5,30.02,South,188,0.1,2.3,54,0.00,BKN,BKN,0.00,185.0,WeatherDisplay:10.37,2013-03-29 14:59:00,
2013-03-29 09:06:00,46.7,30.5,30.02,SSW,196,0.6,2.0,53,0.00,BKN,BKN,0.00,204.0,WeatherDisplay:10.37,2013-03-29 15:06:00,
2013-03-29 09:13:00,47.0,30.7,30.02,WSW,252,1.2,3.4,53,0.00,BKN,BKN,0.00,207.0,WeatherDisplay:10.37,2013-03-29 15:13:00,
2013-03-29 09:20:00,47.5,31.2,30.02,WSW,248,0.0,1.1,53,0.00,BKN,BKN,0.00,209.0,WeatherDisplay:10.37,2013-03-29 15:20:00,
2013-03-29 09:27:00,47.9,31.1,30.02,WSW,248,0.1,2.3,52,0.00,BKN,BKN,0.00,216.0,WeatherDisplay:10.37,2013-03-29 15:27:00,
2013-03-29 09:34:00,48.4,31.6,30.02,SW,217,0.5,3.0,52,0.00,BKN,BKN,0.00,218.0,WeatherDisplay:10.37,2013-03-29 15:34:00,
2013-03-29 09:41:00,48.8,31.5,30.00,SW,225,0.7,0.0,51,0.00,BKN,BKN,0.00,229.0,WeatherDisplay:10.37,2013-03-29 15:41:00,
2013-03-29 09:48:00,49.2,31.3,30.00,SW,220,3.7,5.8,50,0.00,BKN,BKN,0.00,255.0,WeatherDisplay:10.37,2013-03-29 15:48:00,
2013-03-29 09:55:00,49.6,31.7,30.00,SW,229,1.5,4.6,50,0.00,BKN,BKN,0.00,295.0,WeatherDisplay:10.37,2013-03-29 15:55:00,
2013-03-29 10:02:00,50.0,32.1,30.00,SSW,213,1.1,3.4,50,0.00,BKN,BKN,0.00,359.0,WeatherDisplay:10.37,2013-03-29 16:02:00,
2013-03-29 10:09:00,50.7,31.7,30.00,SW,214,1.9,3.4,48,0.00,BKN,BKN,0.00,383.0,WeatherDisplay:10.37,2013-03-29 16:09:00,
2013-03-29 10:16:00,51.6,32.5,29.99,SSW,213,0.1,2.0,48,0.00,BKN,BKN,0.00,432.0,WeatherDisplay:10.37,2013-03-29 16:16:00,
2013-03-29 10:23:00,52.5,32.3,29.99,SSW,213,0.7,3.4,46,0.00,BKN,BKN,0.00,429.0,WeatherDisplay:10.37,2013-03-29 16:23:00,
2013-03-29 10:30:00,53.2,31.8,29.99,SSW,213,2.1,3.4,44,0.00,BKN,BKN,0.00,427.0,WeatherDisplay:10.37,2013-03-29 16:30:00,
2013-03-29 10:37:00,53.8,32.4,29.98,SSW,213,0.0,3.4,44,0.00,BKN,BKN,0.00,503.0,WeatherDisplay:10.37,2013-03-29 16:37:00,
2013-03-29 10:44:00,54.5,31.9,29.97,SSW,205,1.7,4.6,42,0.00,BKN,BKN,0.00,534.0,WeatherDisplay:10.37,2013-03-29 16:44:00,
2013-03-29 10:51:00,55.6,31.6,29.96,SW,217,0.3,3.4,40,0.00,BKN,BKN,0.00,531.0,WeatherDisplay:10.37,2013-03-29 16:51:00,
2013-03-29 10:58:00,56.1,31.5,29.96,SSW,200,2.5,5.8,39,0.00,BKN,BKN,0.00,475.0,WeatherDisplay:10.37,2013-03-29 16:58:00,
2013-03-29 11:05:00,56.5,31.2,29.98,WSW,237,2.1,3.4,38,0.00,BKN,BKN,0.00,497.0,WeatherDisplay:10.37,2013-03-29 17:05:00,
2013-03-29 11:12:00,57.7,32.2,29.97,SW,236,2.6,4.6,38,0.00,BKN,BKN,0.00,563.0,WeatherDisplay:10.37,2013-03-29 17:12:00,
2013-03-29 11:19:00,58.2,32.0,29.97,SW,236,1.5,3.4,37,0.00,BKN,BKN,0.00,591.0,WeatherDisplay:10.37,2013-03-29 17:19:00,
2013-03-29 11:26:00,58.8,31.2,29.96,WSW,254,1.1,3.4,35,0.00,BKN,BKN,0.00,571.0,WeatherDisplay:10.37,2013-03-29 17:26:00,
2013-03-29 11:33:00,59.4,31.0,29.96,NW,313,2.0,2.3,34,0.00,BKN,BKN,0.00,617.0,WeatherDisplay:10.37,2013-03-29 17:33:00,
2013-03-29 11:40:00,60.1,31.6,29.96,NNW,330,0.0,3.4,34,0.00,BKN,BKN,0.00,677.0,WeatherDisplay:10.37,2013-03-29 17:40:00,
2013-03-29 11:47:00,61.1,31.8,29.94,SW,236,3.6,5.8,33,0.00,BKN,BKN,0.00,636.0,WeatherDisplay:10.37,2013-03-29 17:47:00,
2013-03-29 11:54:00,61.4,31.3,29.94,WSW,238,4.7,6.9,32,0.00,BKN,BKN,0.00,833.0,WeatherDisplay:10.37,2013-03-29 17:54:00,
2013-03-29 12:01:00,61.9,31.7,29.94,West,265,2.0,4.6,32,0.00,BKN,BKN,0.00,759.0,WeatherDisplay:10.37,2013-03-29 18:01:00,
2013-03-29 12:08:00,62.3,30.4,29.95,NNW,341,3.0,4.6,30,0.00,BKN,BKN,0.00,431.0,WeatherDisplay:10.37,2013-03-29 18:08:00,
2013-03-29 12:15:00,62.4,31.3,29.94,NW,306,1.4,3.4,31,0.00,BKN,BKN,0.00,645.0,WeatherDisplay:10.37,2013-03-29 18:15:00,
2013-03-29 12:22:00,63.1,30.3,29.93,NW,307,1.5,3.4,29,0.00,BKN,BKN,0.00,594.0,WeatherDisplay:10.37,2013-03-29 18:22:00,
2013-03-29 12:29:00,63.6,30.7,29.93,NW,315,1.1,3.4,29,0.00,BKN,BKN,0.00,566.0,WeatherDisplay:10.37,2013-03-29 18:29:00,
2013-03-29 12:36:00,63.5,29.8,29.92,WSW,253,0.1,1.1,28,0.00,BKN,BKN,0.00,740.0,WeatherDisplay:10.37,2013-03-29 18:36:00,
2013-03-29 12:43:00,63.7,30.8,29.92,SSW,207,0.0,1.1,29,0.00,BKN,BKN,0.00,638.0,WeatherDisplay:10.37,2013-03-29 18:43:00,
2013-03-29 12:50:00,64.3,31.3,29.92,SSW,208,0.2,1.1,29,0.00,BKN,BKN,0.00,708.0,WeatherDisplay:10.37,2013-03-29 18:50:00,
2013-03-29 12:57:00,64.7,30.8,29.91,NNE,19,3.1,5.8,28,0.00,BKN,BKN,0.00,768.0,WeatherDisplay:10.37,2013-03-29 18:57:00,
2013-03-29 13:04:00,64.7,29.9,29.91,North,9,5.2,6.9,27,0.00,BKN,BKN,0.00,842.0,WeatherDisplay:10.37,2013-03-29 19:04:00,
2013-03-29 13:11:00,64.5,29.7,29.91,ENE,75,2.6,4.6,27,0.00,BKN,BKN,0.00,693.0,WeatherDisplay:10.37,2013-03-29 19:11:00,
2013-03-29 13:18:00,64.8,30.0,29.91,ENE,63,1.3,4.0,27,0.00,BKN,BKN,0.00,721.0,WeatherDisplay:10.37,2013-03-29 19:18:00,
2013-03-29 13:25:00,64.9,30.1,29.91,ESE,119,0.9,3.4,27,0.00,BKN,BKN,0.00,619.0,WeatherDisplay:10.37,2013-03-29 19:25:00,
2013-03-29 13:32:00,65.3,30.4,29.90,NNE,33,1.9,3.4,27,0.00,BKN,BKN,0.00,638.0,WeatherDisplay:10.37,2013-03-29 19:32:00,
2013-03-29 13:39:00,65.8,30.9,29.89,East,86,3.0,4.6,27,0.00,BKN,BKN,0.00,772.0,WeatherDisplay:10.37,2013-03-29 19:39:00,
2013-03-29 13:46:00,66.0,30.1,29.89,East,80,1.4,3.4,26,0.00,BKN,BKN,0.00,691.0,WeatherDisplay:10.37,2013-03-29 19:46:00,
2013-03-29 13:53:00,65.8,29.9,29.88,SSE,158,0.5,2.3,26,0.00,BKN,BKN,0.00,860.0,WeatherDisplay:10.37,2013-03-29 19:53:00,
2013-03-29 14:00:00,66.5,31.5,29.88,SSW,196,1.4,6.0,27,0.00,BKN,BKN,0.00,1056.0,WeatherDisplay:10.37,2013-03-29 20:00:00,
2013-03-29 14:07:00,67.0,31.0,29.88,South,176,1.0,4.0,26,0.00,BKN,BKN,0.00,703.0,WeatherDisplay:10.37,2013-03-29 20:07:00,
2013-03-29 14:14:00,67.0,31.0,29.88,SSW,195,4.8,10.3,26,0.00,BKN,BKN,0.00,420.0,WeatherDisplay:10.37,2013-03-29 20:14:00,
2013-03-29 14:21:00,66.7,30.7,29.88,West,265,1.1,3.4,26,0.00,BKN,BKN,0.00,241.0,WeatherDisplay:10.37,2013-03-29 20:21:00,
2013-03-29 14:28:00,66.3,30.4,29.89,West,267,0.0,0.0,26,0.00,BKN,BKN,0.00,251.0,WeatherDisplay:10.37,2013-03-29 20:28:00,
2013-03-29 14:35:00,65.7,30.8,29.88,NNE,19,3.9,7.0,27,0.00,BKN,BKN,0.00,206.0,WeatherDisplay:10.37,2013-03-29 20:35:00,
2013-03-29 14:42:00,65.2,30.3,29.88,NE,51,3.7,6.9,27,0.00,BKN,BKN,0.00,243.0,WeatherDisplay:10.37,2013-03-29 20:42:00,
2013-03-29 14:49:00,64.8,30.0,29.88,NNE,24,2.2,4.6,27,0.00,BKN,BKN,0.00,329.0,WeatherDisplay:10.37,2013-03-29 20:49:00,
2013-03-29 14:56:00,64.7,31.7,29.88,NNE,23,0.6,2.3,29,0.00,BKN,BKN,0.00,438.0,WeatherDisplay:10.37,2013-03-29 20:56:00,
2013-03-29 15:03:00,64.8,30.9,29.89,SSW,196,2.6,4.0,28,0.00,BKN,BKN,0.00,334.0,WeatherDisplay:10.37,2013-03-29 21:03:00,
2013-03-29 15:10:00,64.3,30.5,29.89,SW,225,0.1,1.1,28,0.00,BKN,BKN,0.00,480.0,WeatherDisplay:10.37,2013-03-29 21:10:00,
2013-03-29 15:17:00,64.6,30.7,29.89,SW,225,0.5,2.3,28,0.00,BKN,BKN,0.00,353.0,WeatherDisplay:10.37,2013-03-29 21:17:00,
2013-03-29 15:24:00,64.8,30.9,29.88,NE,42,2.7,5.8,28,0.00,BKN,BKN,0.00,283.0,WeatherDisplay:10.37,2013-03-29 21:24:00,
2013-03-29 15:31:00,64.6,29.8,29.89,NE,46,0.4,2.3,27,0.00,BKN,BKN,0.00,274.0,WeatherDisplay:10.37,2013-03-29 21:31:00,
2013-03-29 15:38:00,64.5,29.7,29.89,WNW,292,0.3,3.4,27,0.00,BKN,BKN,0.00,229.0,WeatherDisplay:10.37,2013-03-29 21:38:00,
2013-03-29 15:45:00,64.4,29.7,29.89,WNW,294,0.0,0.0,27,0.00,BKN,BKN,0.00,190.0,WeatherDisplay:10.37,2013-03-29 21:45:00,
2013-03-29 15:52:00,64.4,29.7,29.89,WNW,288,0.0,0.0,27,0.00,BKN,BKN,0.00,137.0,WeatherDisplay:10.37,2013-03-29 21:52:00,
2013-03-29 15:59:00,64.5,29.7,29.89,WNW,288,0.1,1.1,27,0.00,BKN,BKN,0.00,111.0,WeatherDisplay:10.37,2013-03-29 21:59:00,
2013-03-29 16:06:00,64.4,30.6,29.90,WNW,288,1.4,3.4,28,0.00,BKN,BKN,0.00,125.0,WeatherDisplay:10.37,2013-03-29 22:06:00,
2013-03-29 16:13:00,64.2,29.5,29.91,WNW,288,4.3,4.6,27,0.00,BKN,BKN,0.00,134.0,WeatherDisplay:10.37,2013-03-29 22:13:00,
2013-03-29 16:20:00,63.4,31.4,29.92,NNW,340,6.5,12.6,30,0.00,BKN,BKN,0.00,267.0,WeatherDisplay:10.37,2013-03-29 22:20:00,
2013-03-29 16:27:00,62.9,31.0,29.91,North,350,5.8,10.3,30,0.00,BKN,BKN,0.00,281.0,WeatherDisplay:10.37,2013-03-29 22:27:00,
2013-03-29 16:34:00,62.8,31.7,29.91,NW,315,1.5,3.4,31,0.00,BKN,BKN,0.00,225.0,WeatherDisplay:10.37,2013-03-29 22:34:00,
2013-03-29 16:41:00,62.7,30.8,29.92,NNW,343,5.1,9.2,30,0.00,BKN,BKN,0.00,156.0,WeatherDisplay:10.37,2013-03-29 22:41:00,
2013-03-29 16:48:00,62.6,31.5,29.92,WNW,300,1.6,6.0,31,0.00,BKN,BKN,0.00,127.0,WeatherDisplay:10.37,2013-03-29 22:48:00,
2013-03-29 16:55:00,62.4,30.5,29.92,NW,307,4.0,7.0,30,0.00,BKN,BKN,0.00,97.0,WeatherDisplay:10.37,2013-03-29 22:55:00,
2013-03-29 17:02:00,62.0,31.0,29.93,NW,312,6.7,11.5,31,0.00,BKN,BKN,0.00,62.0,WeatherDisplay:10.37,2013-03-29 23:02:00,
2013-03-29 17:09:00,61.6,31.4,29.93,NW,306,3.2,4.0,32,0.00,BKN,BKN,0.00,62.0,WeatherDisplay:10.37,2013-03-29 23:09:00,
2013-03-29 17:16:00,61.1,31.8,29.94,NW,319,6.3,14.0,33,0.00,BKN,BKN,0.00,46.0,WeatherDisplay:10.37,2013-03-29 23:16:00,
2013-03-29 17:23:00,60.5,33.4,29.94,WNW,299,9.3,16.1,36,0.00,BKN,BKN,0.00,54.0,WeatherDisplay:10.37,2013-03-29 23:23:00,
2013-03-29 17:30:00,59.7,33.4,29.94,NW,315,5.7,11.5,37,0.00,BKN,BKN,0.00,69.0,WeatherDisplay:10.37,2013-03-29 23:30:00,
2013-03-29 17:37:00,59.0,33.4,29.95,NW,326,5.4,10.3,38,0.00,BKN,BKN,0.00,74.0,WeatherDisplay:10.37,2013-03-29 23:37:00,
2013-03-29 17:44:00,58.8,34.5,29.95,West,273,7.3,11.5,40,0.00,BKN,BKN,0.00,63.0,WeatherDisplay:10.37,2013-03-29 23:44:00,
2013-03-29 17:51:00,58.1,33.9,29.95,West,264,7.0,17.3,40,0.00,BKN,BKN,0.00,76.0,WeatherDisplay:10.37,2013-03-29 23:51:00,
2013-03-29 17:58:00,57.6,33.4,29.95,NW,313,7.3,14.9,40,0.00,BKN,BKN,0.00,83.0,WeatherDisplay:10.37,2013-03-29 23:58:00,
2013-03-29 18:05:00,57.3,33.8,29.95,West,281,1.7,10.3,41,0.00,BKN,BKN,0.00,79.0,WeatherDisplay:10.37,2013-03-30 00:05:00,
2013-03-29 18:11:00,57.2,34.3,29.95,West,268,0.4,6.9,42,0.00,BKN,BKN,0.00,237.0,WeatherDisplay:10.37,2013-03-30 00:11:00,
2013-03-29 18:19:00,57.7,34.7,29.95,WSW,246,2.3,3.4,42,0.00,BKN,BKN,0.00,232.0,WeatherDisplay:10.37,2013-03-30 00:19:00,
2013-03-29 18:25:00,58.4,34.8,29.95,SW,225,3.3,7.0,41,0.00,BKN,BKN,0.00,199.0,WeatherDisplay:10.37,2013-03-30 00:25:00,
2013-03-29 18:32:00,59.0,34.7,29.94,WSW,237,1.9,4.0,40,0.00,BKN,BKN,0.00,169.0,WeatherDisplay:10.37,2013-03-30 00:32:00,
2013-03-29 18:39:00,59.3,31.6,29.94,WSW,243,4.7,11.5,35,0.00,BKN,BKN,0.00,65.0,WeatherDisplay:10.37,2013-03-30 00:39:00,
2013-03-29 18:46:00,59.5,31.8,29.94,West,264,6.3,16.1,35,0.00,BKN,BKN,0.00,65.0,WeatherDisplay:10.37,2013-03-30 00:46:00,
2013-03-29 18:53:00,59.4,32.4,29.94,SW,225,7.9,11.5,36,0.00,BKN,BKN,0.00,49.0,WeatherDisplay:10.37,2013-03-30 00:53:00,
2013-03-29 19:00:00,59.0,32.7,29.94,West,261,4.6,10.3,37,0.00,BKN,BKN,0.00,28.0,WeatherDisplay:10.37,2013-03-30 01:00:00,
2013-03-29 19:07:00,59.0,32.7,29.94,WNW,290,4.1,4.1,37,0.00,BKN,BKN,0.00,18.0,WeatherDisplay:10.37,2013-03-30 01:07:00,
2013-03-29 19:14:00,58.8,32.6,29.94,WNW,284,2.3,6.9,37,0.00,BKN,BKN,0.00,14.0,WeatherDisplay:10.37,2013-03-30 01:14:00,
2013-03-29 19:21:00,58.5,32.3,29.94,WNW,298,4.1,5.8,37,0.00,BKN,BKN,0.00,12.0,WeatherDisplay:10.37,2013-03-30 01:21:00,
2013-03-29 19:28:00,58.3,31.4,29.95,WNW,300,3.3,7.0,36,0.00,BKN,BKN,0.00,0.0,WeatherDisplay:10.37,2013-03-30 01:28:00,
2013-03-29 19:35:00,58.3,31.4,29.95,WNW,296,5.5,11.5,36,0.00,BKN,BKN,0.00,0.0,WeatherDisplay:10.37,2013-03-30 01:35:00,
2013-03-29 19:42:00,58.3,30.7,29.95,NW,309,3.1,11.5,35,0.00,BKN,BKN,0.00,0.0,WeatherDisplay:10.37,2013-03-30 01:42:00,
2013-03-29 19:49:00,58.4,30.8,29.96,NW,307,1.5,3.4,35,0.00,BKN,BKN,0.00,0.0,WeatherDisplay:10.37,2013-03-30 01:49:00,
2013-03-29 19:56:00,58.3,30.7,29.96,WNW,287,1.2,4.6,35,0.00,BKN,BKN,0.00,0.0,WeatherDisplay:10.37,2013-03-30 01:56:00,
2013-03-29 20:03:00,58.1,31.3,29.94,WNW,299,0.0,2.3,36,0.00,BKN,BKN,0.00,0.0,WeatherDisplay:10.37,2013-03-30 02:03:00,
2013-03-29 20:10:00,57.9,31.1,29.94,WNW,290,3.3,5.8,36,0.00,BKN,BKN,0.00,0.0,WeatherDisplay:10.37,2013-03-30 02:10:00,
2013-03-29 20:17:00,57.7,30.9,29.94,WNW,292,2.1,3.4,36,0.00,BKN,BKN,0.00,0.0,WeatherDisplay:10.37,2013-03-30 02:17:00,
2013-03-29 20:24:00,57.5,30.7,29.94,WNW,293,3.0,5.8,36,0.00,BKN,BKN,0.00,0.0,WeatherDisplay:10.37,2013-03-30 02:24:00,
2013-03-29 20:31:00,57.3,30.5,29.96,WNW,290,0.7,3.4,36,0.00,BKN,BKN,0.00,0.0,WeatherDisplay:10.37,2013-03-30 02:31:00,
2013-03-29 20:38:00,57.1,31.0,29.96,WNW,290,0.5,0.0,37,0.00,BKN,BKN,0.00,0.0,WeatherDisplay:10.37,2013-03-30 02:38:00,
2013-03-29 20:45:00,56.9,30.9,29.97,WNW,290,0.0,0.0,37,0.00,BKN,BKN,0.00,0.0,WeatherDisplay:10.37,2013-03-30 02:45:00,
2013-03-29 20:52:00,56.5,31.2,29.97,WNW,291,0.1,1.1,38,0.00,BKN,BKN,0.00,0.0,WeatherDisplay:10.37,2013-03-30 02:52:00,
2013-03-29 20:59:00,56.2,30.9,29.98,WNW,288,4.5,6.9,38,0.00,BKN,BKN,0.00,0.0,WeatherDisplay:10.37,2013-03-30 02:59:00,
2013-03-29 21:06:00,55.8,31.2,29.96,WNW,288,0.0,2.3,39,0.00,BKN,BKN,0.00,0.0,WeatherDisplay:10.37,2013-03-30 03:06:00,
2013-03-29 21:13:00,55.5,30.9,29.96,WNW,287,1.2,3.4,39,0.00,BKN,BKN,0.00,0.0,WeatherDisplay:10.37,2013-03-30 03:13:00,
2013-03-29 21:20:00,55.1,31.2,29.97,SW,229,0.0,2.3,40,0.00,BKN,BKN,0.00,0.0,WeatherDisplay:10.37,2013-03-30 03:20:00,
2013-03-29 21:27:00,54.7,31.4,29.97,NW,315,2.3,3.4,41,0.00,BKN,BKN,0.00,0.0,WeatherDisplay:10.37,2013-03-30 03:27:00,
2013-03-29 21:34:00,54.6,31.3,29.98,NNW,348,1.5,4.0,41,0.00,BKN,BKN,0.00,0.0,WeatherDisplay:10.37,2013-03-30 03:34:00,
2013-03-29 21:41:00,54.6,31.3,29.98,North,350,1.2,3.4,41,0.00,BKN,BKN,0.00,0.0,WeatherDisplay:10.37,2013-03-30 03:41:00,
2013-03-29 21:48:00,54.4,31.2,29.98,North,350,2.0,3.4,41,0.00,BKN,BKN,0.00,0.0,WeatherDisplay:10.37,2013-03-30 03:48:00,
2013-03-29 21:55:00,54.3,31.1,29.98,North,360,0.3,2.3,41,0.00,BKN,BKN,0.00,0.0,WeatherDisplay:10.37,2013-03-30 03:55:00,
2013-03-29 22:02:00,54.1,30.9,29.98,North,360,0.5,2.3,41,0.00,BKN,BKN,0.00,0.0,WeatherDisplay:10.37,2013-03-30 04:02:00,
2013-03-29 22:09:00,53.9,31.3,29.95,North,360,0.0,0.0,42,0.00,BKN,BKN,0.00,0.0,WeatherDisplay:10.37,2013-03-30 04:09:00,
2013-03-29 22:16:00,53.7,31.1,29.95,WNW,300,2.6,4.6,42,0.00,BKN,BKN,0.00,0.0,WeatherDisplay:10.37,2013-03-30 04:16:00,
2013-03-29 22:23:00,53.5,31.0,29.95,WNW,292,0.4,1.1,42,0.00,BKN,BKN,0.00,0.0,WeatherDisplay:10.37,2013-03-30 04:23:00,
2013-03-29 22:30:00,53.3,31.4,29.96,WSW,250,0.5,2.3,43,0.00,BKN,BKN,0.00,0.0,WeatherDisplay:10.37,2013-03-30 04:30:00,
2013-03-29 22:37:00,53.1,31.2,29.96,WSW,252,1.3,3.4,43,0.00,BKN,BKN,0.00,0.0,WeatherDisplay:10.37,2013-03-30 04:37:00,
2013-03-29 22:44:00,52.8,30.9,29.96,NW,313,2.4,3.4,43,0.00,BKN,BKN,0.00,0.0,WeatherDisplay:10.37,2013-03-30 04:44:00,
2013-03-29 22:51:00,52.7,31.4,29.96,WNW,303,1.5,3.4,44,0.00,BKN,BKN,0.00,0.0,WeatherDisplay:10.37,2013-03-30 04:51:00,
2013-03-29 22:58:00,52.6,31.3,29.96,WNW,289,2.8,4.6,44,0.00,BKN,BKN,0.00,0.0,WeatherDisplay:10.37,2013-03-30 04:58:00,
2013-03-29 23:05:00,52.6,31.3,29.93,WNW,296,0.8,3.4,44,0.00,SCT,SCT,0.00,0.0,WeatherDisplay:10.37,2013-03-30 05:05:00,
2013-03-29 23:12:00,52.6,31.3,29.93,WNW,299,2.1,3.4,44,0.00,SCT,SCT,0.00,0.0,WeatherDisplay:10.37,2013-03-30 05:12:00,
2013-03-29 23:19:00,52.6,31.3,29.92,WNW,299,0.6,2.3,44,0.00,SCT,SCT,0.00,0.0,WeatherDisplay:10.37,2013-03-30 05:19:00,
2013-03-29 23:26:00,52.5,31.2,29.92,West,263,0.0,1.1,44,0.00,SCT,SCT,0.00,0.0,WeatherDisplay:10.37,2013-03-30 05:26:00,
2013-03-29 23:33:00,52.3,31.0,29.93,West,263,0.9,2.3,44,0.00,SCT,SCT,0.00,0.0,WeatherDisplay:10.37,2013-03-30 05:33:00,
2013-03-29 23:40:00,52.2,31.5,29.92,West,263,0.0,0.0,45,0.00,SCT,SCT,0.00,0.0,WeatherDisplay:10.37,2013-03-30 05:40:00,
2013-03-29 23:47:00,51.9,31.2,29.92,West,263,0.8,1.1,45,0.00,SCT,SCT,0.00,0.0,WeatherDisplay:10.37,2013-03-30 05:47:00,
2013-03-29 23:54:00,51.6,30.9,29.92,West,263,0.7,2.3,45,0.00,SCT,SCT,0.00,0.0,WeatherDisplay:10.37,2013-03-30 05:54:00,